User: anonymous   Login
Location: *
(38.4303°S, 157.0822°W)
Time: 05:31:28
(UTC+00:00)
Language:

Cosmos 2360 Rocket - Orbit

View from above orbital plane
View from above orbital plane
View from above satellite
View from above satellite

Ground track
Ground track

The orbit data is extracted from the following two-line orbital elements,

1 25407U 98045B   24204.39036015  .00000288  00000-0  16992-3 0  9991
2 25407  71.0125 353.3366 0008848 224.5720 135.4692 14.16014923342825
Epoch (UTC): 22 July 2024 09:22:07
Eccentricity: 0.0008848
inclination: 71.0125°
perigee height: 832 km
apogee height: 845 km
right ascension of ascending node: 353.3366°
argument of perigee: 224.5720°
revolutions per day: 14.16014923
mean anomaly at epoch: 135.4692°
orbit number at epoch: 34282

The dashed part of the orbit path shows where the satellite is in the earth's shadow,  

DLR